This is the latest recevied weather packets stored in our database for station/object DH1FR-13. If no packets are shown the sender has not sent any weather packets the latest 10 day(s).
| Time | Temp. | Humidity | Pressure | Rain* | Wind** | Luminosity | Snow |
|---|---|---|---|---|---|---|---|
| 1788058200 | 18.89° C | 82% | 1014.7 hPa | 0 mm | 0 m/s | - | - |
| 1788057600 | 18.89° C | 82% | 1014.6 hPa | 0 mm | 0 m/s | - | - |
| 1788057000 | 18.33° C | 83% | 1014.9 hPa | 0 mm | 0 m/s | - | - |
| 1788056400 | 18.33° C | 83% | 1014.7 hPa | 0 mm | 0 m/s | - | - |
| 1788055801 | 18.33° C | 82% | 1014.6 hPa | 0 mm | 0 m/s | - | - |
| 1788055203 | 18.33° C | 82% | 1014.7 hPa | 0 mm | 0 m/s | - | - |
| 1788054601 | 18.33° C | 82% | 1014.7 hPa | 0 mm | 0 m/s | - | - |
| 1788054000 | 18.89° C | 82% | 1014.5 hPa | 0 mm | 0 m/s | - | - |
| 1788053401 | 18.33° C | 82% | 1014.8 hPa | 0 mm | 0 m/s | - | - |
| 1788052801 | 18.89° C | 82% | 1015 hPa | 0 mm | 0 m/s | - | - |
| 1788052201 | 18.89° C | 79% | 1015 hPa | 0 mm | 0 m/s | - | - |
| 1788051601 | 19.44° C | 78% | 1014.9 hPa | 0 mm | 0 m/s | - | - |
| 1788051001 | 19.44° C | 78% | 1014.8 hPa | 0 mm | 0 m/s | - | - |
| 1788050400 | 18.89° C | 78% | 1014.8 hPa | 0 mm | 0 m/s | - | - |
| 1788049801 | 18.89° C | 79% | 1014.9 hPa | 0 mm | 0 m/s | - | - |
| 1788049200 | 19.44° C | 78% | 1014.9 hPa | 0 mm | 0 m/s | - | - |
| 1788048601 | 19.44° C | 76% | 1015.1 hPa | 0 mm | 0 m/s | - | - |
| 1788048001 | 19.44° C | 76% | 1015.3 hPa | 0 mm | 0 m/s | - | - |
| 1788047400 | 19.44° C | 75% | 1015.1 hPa | 0 mm | 0 m/s | - | - |
| 1788046800 | 19.44° C | 75% | 1015.1 hPa | 0 mm | 0 m/s | - | - |
| 1788046201 | 20° C | 73% | 1015.2 hPa | 0 mm | 0 m/s | - | - |
| 1788045601 | 20° C | 73% | 1014.9 hPa | 0 mm | 0 m/s | - | - |
| 1788045001 | 20° C | 72% | 1015 hPa | 0 mm | 0 m/s | - | - |
| 1788044400 | 20° C | 72% | 1014.9 hPa | 0 mm | 0 m/s | - | - |
| 1788043802 | 20° C | 72% | 1014.9 hPa | 0 mm | 0 m/s | - | - |
* Rain latest hour (hover to see other rain measurements)
** Current wind speed in m/s (hover to see current wind gust speed)